START_TIME,STEP,MOV.,AL01,t_acc.,AL02,t_acc.,E37,t_acc.,H21,t_acc.
1980-11-16 00:00:22.900 ,3,0,0.,24.0,0.,24.0,0.,24.0,0.,24.0
1980-11-16 00:00:46.900 ,4,1,0.,24.0,0.,24.0,0.,24.0,0.,24.0
1980-11-16 00:01:10.900 ,4,0,0.,24.0,0.,24.0,1.,24.0,0.,24.0
1980-11-16 00:01:34.900 ,5,1,0.,24.0,0.,24.0,0.,24.0,0.,24.0
1980-11-16 00:01:58.900 ,5,0,0.,24.0,0.,24.0,1.,24.0,0.,24.0
1980-11-16 00:02:22.900 ,6,1,0.,24.0,0.,24.0,0.,24.0,0.,24.0
1980-11-16 00:02:46.900 ,6,0,0.,24.0,0.,24.0,0.,24.0,0.,24.0
1980-11-16 00:03:10.900 ,7,1,3.,24.0,0.,24.0,0.,24.0,0.,24.0
1980-11-16 00:03:34.900 ,7,0,6.,24.0,0.,24.0,1.,24.0,0.,24.0
1980-11-16 00:03:58.900 ,7,1,10.,24.0,0.,24.0,2.,24.0,0.,24.0
1980-11-16 00:04:22.900 ,7,0,17.,24.0,0.,24.0,0.,24.0,0.,24.0
1980-11-16 00:04:46.900 ,6,1,4.,24.0,0.,24.0,0.,24.0,0.,24.0
1980-11-16 00:05:10.900 ,6,0,0.,24.0,0.,24.0,0.,24.0,0.,24.0
1980-11-16 00:05:34.900 ,5,1,0.,24.0,0.,24.0,1.,24.0,0.,24.0
1980-11-16 00:05:58.900 ,5,0,0.,24.0,0.,24.0,0.,24.0,0.,24.0
1980-11-16 00:06:22.900 ,0,0,0.,24.0,0.,24.0,0.,24.0,0.,24.0
1980-11-16 00:07:10.900 ,3,1,0.,24.0,0.,24.0,0.,24.0,0.,24.0
1980-11-16 00:07:34.900 ,3,0,0.,24.0,0.,24.0,0.,24.0,0.,24.0
1980-11-16 00:07:58.900 ,2,1,0.,24.0,0.,24.0,0.,24.0,0.,24.0
1980-11-16 00:08:22.900 ,2,0,0.,24.0,0.,24.0,1.,24.0,0.,24.0
1980-11-16 00:08:46.900 ,1,1,0.,24.0,0.,24.0,0.,24.0,0.,24.0
1980-11-16 00:09:10.900 ,1,0,0.,24.0,0.,24.0,0.,24.0,0.,24.0
1980-11-16 00:09:34.900 ,0,1,1.,24.0,0.,24.0,0.,24.0,0.,24.0
1980-11-16 00:09:58.900 ,0,0,0.,24.0,0.,24.0,0.,24.0,0.,24.0
1980-11-16 00:10:22.900 ,0,1,0.,24.0,0.,24.0,1.,24.0,0.,24.0
1980-11-16 00:10:46.900 ,0,0,0.,24.0,0.,24.0,0.,24.0,0.,24.0
1980-11-16 00:11:10.900 ,1,1,0.,24.0,0.,24.0,2.,24.0,0.,24.0
1980-11-16 00:11:34.900 ,1,0,0.,24.0,0.,24.0,1.,24.0,0.,24.0
1980-11-16 00:11:58.900 ,2,1,0.,24.0,0.,24.0,0.,24.0,0.,24.0
1980-11-16 00:12:22.900 ,2,0,0.,24.0,0.,24.0,0.,24.0,0.,24.0
1980-11-16 00:12:46.900 ,3,1,0.,24.0,0.,24.0,1.,24.0,0.,24.0
1980-11-16 00:13:10.900 ,3,0,0.,24.0,0.,24.0,1.,24.0,0.,24.0
1980-11-16 00:13:34.900 ,4,1,0.,24.0,0.,24.0,1.,24.0,0.,24.0
1980-11-16 00:13:58.900 ,4,0,0.,24.0,0.,24.0,0.,24.0,0.,24.0
1980-11-16 00:14:22.900 ,5,1,0.,24.0,0.,24.0,0.,24.0,0.,24.0
1980-11-16 00:14:46.900 ,5,0,0.,24.0,0.,24.0,0.,24.0,0.,24.0
1980-11-16 00:15:10.900 ,6,1,0.,24.0,0.,24.0,1.,24.0,0.,24.0
1980-11-16 00:15:34.900 ,6,0,0.,24.0,0.,24.0,0.,24.0,0.,24.0
1980-11-16 00:15:58.900 ,7,1,1.,24.0,0.,24.0,0.,24.0,0.,24.0
1980-11-16 00:16:22.900 ,7,0,7.,24.0,0.,24.0,0.,24.0,0.,24.0
1980-11-16 00:16:46.900 ,7,1,9.,24.0,0.,24.0,0.,24.0,0.,24.0
1980-11-16 00:17:10.900 ,7,0,8.,24.0,0.,24.0,0.,24.0,0.,24.0
1980-11-16 00:17:34.900 ,6,1,10.,24.0,0.,24.0,0.,24.0,0.,24.0
1980-11-16 00:17:58.900 ,6,0,0.,24.0,0.,24.0,0.,24.0,0.,24.0
1980-11-16 00:18:22.900 ,5,1,0.,24.0,0.,24.0,0.,24.0,0.,24.0
1980-11-16 00:18:46.900 ,5,0,0.,24.0,0.,24.0,0.,24.0,0.,24.0
1980-11-16 00:19:10.900 ,4,1,0.,24.0,0.,24.0,0.,24.0,0.,24.0
1980-11-16 00:19:34.900 ,4,0,0.,24.0,0.,24.0,0.,24.0,0.,24.0
1980-11-16 00:19:58.900 ,3,1,1.,24.0,0.,24.0,0.,24.0,0.,24.0
1980-11-16 00:20:22.900 ,3,0,0.,24.0,0.,24.0,0.,24.0,0.,24.0
1980-11-16 00:20:46.900 ,2,1,0.,24.0,0.,24.0,1.,24.0,0.,24.0
1980-11-16 00:21:10.900 ,2,0,0.,24.0,0.,24.0,1.,24.0,0.,24.0
1980-11-16 00:21:34.900 ,1,1,0.,24.0,0.,24.0,0.,24.0,0.,24.0
1980-11-16 00:21:58.900 ,1,0,0.,24.0,0.,24.0,0.,24.0,0.,24.0
1980-11-16 00:22:22.900 ,0,1,0.,24.0,0.,24.0,0.,24.0,0.,24.0
1980-11-16 00:22:46.900 ,0,0,0.,24.0,0.,24.0,1.,24.0,0.,24.0
1980-11-16 00:23:10.900 ,0,1,0.,24.0,0.,24.0,0.,24.0,0.,24.0
1980-11-16 00:23:34.900 ,0,0,0.,24.0,0.,24.0,1.,24.0,0.,24.0
1980-11-16 00:23:58.900 ,1,1,1.,24.0,0.,24.0,0.,24.0,0.,24.0
1980-11-16 00:24:22.900 ,1,0,0.,24.0,0.,24.0,0.,24.0,0.,24.0
1980-11-16 00:24:46.900 ,2,1,0.,24.0,0.,24.0,1.,24.0,0.,24.0
1980-11-16 00:25:10.900 ,2,0,0.,24.0,0.,24.0,0.,24.0,0.,24.0
1980-11-16 00:25:34.900 ,3,1,0.,24.0,0.,24.0,0.,24.0,0.,24.0
1980-11-16 00:25:58.900 ,3,0,0.,24.0,0.,24.0,0.,24.0,0.,24.0
1980-11-16 00:26:22.900 ,4,1,0.,24.0,0.,24.0,0.,24.0,0.,24.0
1980-11-16 00:26:46.900 ,4,0,0.,24.0,0.,24.0,1.,24.0,0.,24.0
1980-11-16 00:27:10.900 ,5,1,0.,24.0,0.,24.0,1.,24.0,0.,24.0
1980-11-16 00:27:34.900 ,5,0,0.,24.0,0.,24.0,1.,24.0,0.,24.0
1980-11-16 00:27:58.900 ,6,1,0.,24.0,0.,24.0,0.,24.0,0.,24.0
1980-11-16 00:28:22.900 ,6,0,0.,24.0,0.,24.0,0.,24.0,0.,24.0
1980-11-16 00:28:46.900 ,7,1,2.,24.0,0.,24.0,1.,24.0,0.,24.0
1980-11-16 00:29:10.900 ,7,0,9.,24.0,0.,24.0,0.,24.0,0.,24.0
1980-11-16 00:29:34.900 ,7,1,5.,24.0,0.,24.0,1.,24.0,0.,24.0
1980-11-16 00:29:58.900 ,7,0,9.,24.0,0.,24.0,0.,24.0,0.,24.0
1980-11-16 00:30:22.900 ,6,1,8.,24.0,0.,24.0,1.,24.0,0.,24.0
1980-11-16 00:30:46.900 ,6,0,0.,24.0,0.,24.0,0.,24.0,0.,24.0
1980-11-16 00:31:10.900 ,5,1,0.,24.0,0.,24.0,0.,24.0,0.,24.0
1980-11-16 00:31:34.900 ,5,0,1.,24.0,0.,24.0,0.,24.0,0.,24.0
1980-11-16 00:31:58.900 ,4,1,0.,24.0,0.,24.0,0.,24.0,0.,24.0
1980-11-16 00:32:22.900 ,4,0,0.,24.0,0.,24.0,2.,24.0,0.,24.0
1980-11-16 00:32:46.900 ,3,1,0.,24.0,0.,24.0,1.,24.0,0.,24.0
1980-11-16 00:33:10.900 ,3,0,0.,24.0,0.,24.0,1.,24.0,0.,24.0
1980-11-16 00:33:34.900 ,2,1,0.,24.0,0.,24.0,2.,24.0,0.,24.0
1980-11-16 00:33:58.900 ,2,0,0.,24.0,0.,24.0,0.,24.0,0.,24.0
1980-11-16 00:34:22.900 ,1,1,0.,24.0,0.,24.0,1.,24.0,0.,24.0
1980-11-16 00:34:46.900 ,1,0,0.,24.0,0.,24.0,0.,24.0,0.,24.0
1980-11-16 00:35:10.900 ,0,1,0.,24.0,0.,24.0,0.,24.0,0.,24.0
1980-11-16 00:35:34.900 ,0,0,0.,24.0,0.,24.0,0.,24.0,0.,24.0
1980-11-16 00:35:58.900 ,0,1,0.,24.0,0.,24.0,0.,24.0,0.,24.0
1980-11-16 00:36:22.900 ,0,0,0.,24.0,0.,24.0,1.,24.0,0.,24.0
1980-11-16 00:36:46.900 ,1,1,0.,24.0,0.,24.0,0.,24.0,0.,24.0
1980-11-16 00:37:10.900 ,1,0,0.,24.0,0.,24.0,0.,24.0,0.,24.0
1980-11-16 00:37:34.900 ,2,1,0.,24.0,0.,24.0,0.,24.0,0.,24.0
1980-11-16 00:37:58.900 ,2,0,0.,24.0,0.,24.0,0.,24.0,0.,24.0
1980-11-16 00:38:22.900 ,3,1,0.,24.0,0.,24.0,0.,24.0,0.,24.0
1980-11-16 00:38:46.900 ,0,0,0.,24.0,0.,24.0,0.,24.0,0.,24.0
1980-11-16 00:39:10.900 ,4,1,0.,24.0,0.,24.0,0.,24.0,0.,24.0
1980-11-16 00:39:34.900 ,4,0,0.,24.0,0.,24.0,0.,24.0,0.,24.0
1980-11-16 00:39:58.900 ,5,1,0.,24.0,0.,24.0,0.,24.0,0.,24.0
1980-11-16 00:40:22.900 ,5,0,0.,24.0,0.,24.0,1.,24.0,0.,24.0
1980-11-16 00:40:46.900 ,6,1,0.,24.0,0.,24.0,1.,24.0,0.,24.0
1980-11-16 00:41:10.900 ,6,0,0.,24.0,0.,24.0,0.,24.0,0.,24.0
1980-11-16 00:41:34.900 ,7,1,5.,24.0,0.,24.0,1.,24.0,0.,24.0
1980-11-16 00:41:58.900 ,7,0,4.,24.0,0.,24.0,0.,24.0,0.,24.0
1980-11-16 00:42:22.900 ,7,1,18.,24.0,0.,24.0,0.,24.0,0.,24.0
1980-11-16 00:42:46.900 ,7,0,7.,24.0,0.,24.0,0.,24.0,0.,24.0
1980-11-16 00:43:10.900 ,6,1,9.,24.0,0.,24.0,1.,24.0,0.,24.0
1980-11-16 00:43:34.900 ,6,0,0.,24.0,0.,24.0,1.,24.0,0.,24.0
1980-11-16 00:43:58.900 ,5,1,0.,24.0,0.,24.0,0.,24.0,0.,24.0
1980-11-16 00:44:22.900 ,5,0,0.,24.0,0.,24.0,1.,24.0,0.,24.0
1980-11-16 00:44:46.900 ,4,1,0.,24.0,0.,24.0,0.,24.0,0.,24.0
1980-11-16 00:45:10.900 ,4,0,0.,24.0,0.,24.0,1.,24.0,0.,24.0
1980-11-16 00:45:34.900 ,3,1,0.,24.0,0.,24.0,1.,24.0,0.,24.0
1980-11-16 00:45:58.900 ,0,0,0.,24.0,0.,24.0,1.,24.0,0.,24.0
1980-11-16 00:46:39.100 ,0,0,,0,,0,,0,,0
1980-11-16 00:46:46.900 ,0,0,0.,24.0,0.,24.0,0.,24.0,0.,24.0
1980-11-16 00:47:10.900 ,1,1,0.,24.0,0.,24.0,0.,24.0,0.,24.0
1980-11-16 00:47:34.900 ,1,0,0.,24.0,0.,24.0,0.,24.0,0.,24.0
1980-11-16 00:47:58.900 ,0,1,0.,24.0,0.,24.0,0.,24.0,0.,24.0
1980-11-16 00:48:22.900 ,0,0,0.,24.0,0.,24.0,0.,24.0,0.,24.0
1980-11-16 00:48:46.900 ,0,1,0.,24.0,0.,24.0,0.,24.0,0.,24.0
1980-11-16 00:49:10.900 ,0,0,0.,24.0,0.,24.0,0.,24.0,0.,24.0
1980-11-16 00:49:34.900 ,1,1,0.,24.0,0.,24.0,0.,24.0,0.,24.0
1980-11-16 00:49:58.900 ,1,0,0.,24.0,0.,24.0,0.,24.0,0.,24.0
1980-11-16 00:50:22.900 ,2,1,0.,24.0,0.,24.0,1.,24.0,0.,24.0
1980-11-16 00:50:46.900 ,2,0,0.,24.0,0.,24.0,0.,24.0,0.,24.0
1980-11-16 00:51:10.900 ,3,1,0.,24.0,0.,24.0,0.,24.0,0.,24.0
1980-11-16 00:51:34.900 ,3,0,0.,24.0,0.,24.0,1.,24.0,0.,24.0
1980-11-16 00:51:58.900 ,4,1,0.,24.0,0.,24.0,0.,24.0,0.,24.0
1980-11-16 00:52:22.900 ,4,0,0.,24.0,0.,24.0,1.,24.0,0.,24.0
1980-11-16 00:52:46.900 ,5,1,0.,24.0,0.,24.0,0.,24.0,0.,24.0
1980-11-16 00:53:10.900 ,5,0,0.,24.0,0.,24.0,0.,24.0,0.,24.0
1980-11-16 00:53:34.900 ,6,1,0.,24.0,0.,24.0,1.,24.0,0.,24.0
1980-11-16 00:53:58.900 ,6,0,0.,24.0,0.,24.0,0.,24.0,0.,24.0
1980-11-16 00:54:22.900 ,7,1,0.,24.0,0.,24.0,0.,24.0,0.,24.0
1980-11-16 00:54:46.900 ,7,0,11.,24.0,0.,24.0,1.,24.0,0.,24.0
1980-11-16 00:55:10.900 ,7,1,6.,24.0,0.,24.0,1.,24.0,0.,24.0
1980-11-16 00:55:34.900 ,7,0,14.,24.0,0.,24.0,0.,24.0,0.,24.0
1980-11-16 00:55:58.900 ,6,1,10.,24.0,0.,24.0,0.,24.0,0.,24.0
1980-11-16 00:56:22.900 ,0,0,0.,24.0,0.,24.0,1.,24.0,0.,24.0
1980-11-16 00:59:16.900 ,0,0,0.,24.0,0.,24.0,0.,24.0,0.,24.0
1980-11-16 00:59:34.900 ,0,0,0.,24.0,0.,24.0,0.,24.0,0.,24.0
1980-11-16 00:59:58.900 ,1,1,0.,24.0,0.,24.0,0.,24.0,0.,24.0
1980-11-16 01:00:22.900 ,1,0,0.,24.0,0.,24.0,2.,24.0,0.,24.0
1980-11-16 01:00:46.900 ,0,1,0.,24.0,0.,24.0,0.,24.0,0.,24.0
1980-11-16 01:01:10.900 ,0,0,0.,24.0,0.,24.0,0.,24.0,0.,24.0
1980-11-16 01:01:34.900 ,0,1,0.,24.0,0.,24.0,1.,24.0,0.,24.0
1980-11-16 01:01:58.900 ,0,0,0.,24.0,0.,24.0,0.,24.0,0.,24.0
1980-11-16 01:02:22.900 ,1,1,0.,24.0,0.,24.0,0.,24.0,0.,24.0
1980-11-16 01:02:46.900 ,1,0,1.,24.0,0.,24.0,1.,24.0,0.,24.0
1980-11-16 01:03:10.900 ,2,1,0.,24.0,0.,24.0,1.,24.0,0.,24.0
1980-11-16 01:03:34.900 ,2,0,0.,24.0,0.,24.0,0.,24.0,0.,24.0
1980-11-16 01:03:58.900 ,3,1,0.,24.0,0.,24.0,2.,24.0,0.,24.0
1980-11-16 01:04:22.900 ,3,0,1.,24.0,0.,24.0,1.,24.0,0.,24.0
1980-11-16 01:04:46.900 ,4,1,0.,24.0,0.,24.0,0.,24.0,0.,24.0
1980-11-16 01:05:10.900 ,4,0,0.,24.0,0.,24.0,0.,24.0,0.,24.0
1980-11-16 01:05:34.900 ,5,1,0.,24.0,0.,24.0,1.,24.0,0.,24.0
1980-11-16 01:05:58.900 ,5,0,0.,24.0,0.,24.0,1.,24.0,0.,24.0
1980-11-16 01:06:22.900 ,6,1,0.,24.0,0.,24.0,1.,24.0,0.,24.0
1980-11-16 01:06:46.900 ,6,0,0.,24.0,0.,24.0,0.,24.0,0.,24.0
1980-11-16 01:07:10.900 ,7,1,5.,24.0,0.,24.0,0.,24.0,0.,24.0
1980-11-16 01:07:34.900 ,7,0,8.,24.0,0.,24.0,0.,24.0,0.,24.0
1980-11-16 01:07:58.900 ,7,1,14.,24.0,0.,24.0,0.,24.0,0.,24.0
1980-11-16 01:08:22.900 ,7,0,13.,24.0,0.,24.0,1.,24.0,0.,24.0
1980-11-16 01:08:46.900 ,6,1,12.,24.0,0.,24.0,0.,24.0,0.,24.0
1980-11-16 01:09:10.900 ,6,0,0.,24.0,0.,24.0,1.,24.0,0.,24.0
1980-11-16 01:09:34.900 ,5,1,0.,24.0,0.,24.0,0.,24.0,0.,24.0
1980-11-16 01:09:58.900 ,5,0,0.,24.0,0.,24.0,0.,24.0,0.,24.0
1980-11-16 01:10:22.900 ,4,1,0.,24.0,0.,24.0,2.,24.0,0.,24.0
1980-11-16 01:10:46.900 ,4,0,0.,24.0,0.,24.0,1.,24.0,0.,24.0
1980-11-16 01:11:10.900 ,3,1,0.,24.0,0.,24.0,0.,24.0,0.,24.0
1980-11-16 01:11:34.900 ,3,0,0.,24.0,0.,24.0,1.,24.0,0.,24.0
1980-11-16 01:11:58.900 ,2,1,0.,24.0,1.,24.0,0.,24.0,0.,24.0
1980-11-16 01:12:22.900 ,2,0,0.,24.0,0.,24.0,1.,24.0,0.,24.0
1980-11-16 01:12:46.900 ,1,1,0.,24.0,0.,24.0,1.,24.0,0.,24.0
1980-11-16 01:13:10.900 ,1,0,0.,24.0,0.,24.0,0.,24.0,0.,24.0
1980-11-16 01:13:34.900 ,0,1,0.,24.0,0.,24.0,0.,24.0,0.,24.0
1980-11-16 01:13:58.900 ,0,0,0.,24.0,0.,24.0,0.,24.0,0.,24.0
1980-11-16 01:14:22.900 ,0,1,0.,24.0,0.,24.0,1.,24.0,0.,24.0
1980-11-16 01:14:46.900 ,0,0,0.,24.0,0.,24.0,0.,24.0,0.,24.0
1980-11-16 01:15:10.900 ,1,1,0.,24.0,0.,24.0,1.,24.0,0.,24.0
1980-11-16 01:15:34.900 ,1,0,0.,24.0,0.,24.0,0.,24.0,0.,24.0
1980-11-16 01:15:58.900 ,2,1,0.,24.0,0.,24.0,0.,24.0,0.,24.0
1980-11-16 01:16:22.900 ,2,0,0.,24.0,0.,24.0,0.,24.0,0.,24.0
1980-11-16 01:16:46.900 ,3,1,0.,24.0,0.,24.0,1.,24.0,0.,24.0
1980-11-16 01:17:10.900 ,3,0,0.,24.0,0.,24.0,0.,24.0,0.,24.0
1980-11-16 01:17:34.900 ,4,1,0.,24.0,0.,24.0,0.,24.0,0.,24.0
1980-11-16 01:17:58.900 ,4,0,0.,24.0,0.,24.0,2.,24.0,0.,24.0
1980-11-16 01:18:22.900 ,5,1,0.,24.0,0.,24.0,1.,24.0,0.,24.0
1980-11-16 01:18:46.900 ,5,0,0.,24.0,0.,24.0,0.,24.0,0.,24.0
1980-11-16 01:19:10.900 ,6,1,0.,24.0,0.,24.0,1.,24.0,0.,24.0
1980-11-16 01:19:34.900 ,6,0,0.,24.0,0.,24.0,0.,24.0,0.,24.0
1980-11-16 01:19:58.900 ,7,1,1.,24.0,0.,24.0,0.,24.0,0.,24.0
1980-11-16 01:20:22.900 ,0,0,7.,24.0,0.,24.0,0.,24.0,0.,24.0
1980-11-16 01:21:22.300 ,0,0,9.,24.0,0.,24.0,0.,24.0,0.,24.0
1980-11-16 01:21:34.900 ,6,1,3.,24.0,0.,24.0,0.,24.0,0.,24.0
1980-11-16 01:21:58.900 ,6,0,0.,24.0,0.,24.0,0.,24.0,0.,24.0
1980-11-16 01:22:22.900 ,5,1,0.,24.0,0.,24.0,0.,24.0,0.,24.0
1980-11-16 01:22:46.900 ,5,0,0.,24.0,0.,24.0,1.,24.0,0.,24.0
1980-11-16 01:23:10.900 ,4,1,0.,24.0,0.,24.0,0.,24.0,0.,24.0
1980-11-16 01:23:34.900 ,4,0,0.,24.0,0.,24.0,0.,24.0,0.,24.0
1980-11-16 01:23:58.900 ,3,1,0.,24.0,0.,24.0,0.,24.0,0.,24.0
1980-11-16 01:24:22.900 ,3,0,0.,24.0,0.,24.0,1.,24.0,0.,24.0
1980-11-16 01:24:46.900 ,2,1,1.,24.0,0.,24.0,1.,24.0,0.,24.0
1980-11-16 01:25:10.900 ,2,0,0.,24.0,0.,24.0,0.,24.0,0.,24.0
1980-11-16 01:25:34.900 ,1,1,0.,24.0,0.,24.0,0.,24.0,0.,24.0
1980-11-16 01:25:58.900 ,1,0,0.,24.0,0.,24.0,2.,24.0,0.,24.0
1980-11-16 01:26:22.900 ,0,1,0.,24.0,0.,24.0,0.,24.0,0.,24.0
1980-11-16 01:26:46.900 ,0,0,0.,24.0,0.,24.0,0.,24.0,0.,24.0
1980-11-16 01:27:10.900 ,0,1,0.,24.0,0.,24.0,0.,24.0,0.,24.0
1980-11-16 01:27:34.900 ,0,0,0.,24.0,0.,24.0,0.,24.0,0.,24.0
1980-11-16 01:27:58.900 ,1,1,1.,24.0,0.,24.0,0.,24.0,0.,24.0
1980-11-16 01:28:22.900 ,1,0,0.,24.0,0.,24.0,0.,24.0,0.,24.0
1980-11-16 01:28:46.900 ,2,1,0.,24.0,0.,24.0,0.,24.0,0.,24.0
1980-11-16 01:29:10.900 ,2,0,0.,24.0,0.,24.0,0.,24.0,0.,24.0
1980-11-16 01:29:34.900 ,3,1,0.,24.0,0.,24.0,1.,24.0,0.,24.0
1980-11-16 01:29:58.900 ,3,0,0.,24.0,0.,24.0,0.,24.0,0.,24.0
1980-11-16 01:30:22.900 ,4,1,0.,24.0,0.,24.0,1.,24.0,0.,24.0
1980-11-16 01:30:46.900 ,4,0,0.,24.0,0.,24.0,0.,24.0,0.,24.0
1980-11-16 01:31:10.900 ,5,1,0.,24.0,0.,24.0,1.,24.0,0.,24.0
1980-11-16 01:31:34.900 ,5,0,0.,24.0,0.,24.0,0.,24.0,0.,24.0
1980-11-16 01:31:58.900 ,6,1,0.,24.0,0.,24.0,0.,24.0,0.,24.0
1980-11-16 01:32:22.900 ,6,0,0.,24.0,0.,24.0,0.,24.0,0.,24.0
1980-11-16 01:32:46.900 ,7,1,0.,24.0,0.,24.0,0.,24.0,0.,24.0
1980-11-16 01:33:10.900 ,7,0,11.,24.0,0.,24.0,2.,24.0,0.,24.0
1980-11-16 01:33:34.900 ,7,1,15.,24.0,0.,24.0,2.,24.0,0.,24.0
1980-11-16 01:33:58.900 ,7,0,6.,24.0,0.,24.0,0.,24.0,0.,24.0
1980-11-16 01:34:22.900 ,6,1,7.,24.0,0.,24.0,2.,24.0,0.,24.0
1980-11-16 01:34:46.900 ,6,0,0.,24.0,0.,24.0,0.,24.0,0.,24.0
1980-11-16 01:35:10.900 ,5,1,0.,24.0,0.,24.0,0.,24.0,0.,24.0
1980-11-16 01:35:34.900 ,5,0,0.,24.0,0.,24.0,1.,24.0,0.,24.0
1980-11-16 01:35:58.900 ,4,1,0.,24.0,0.,24.0,3.,24.0,0.,24.0
1980-11-16 01:36:22.900 ,4,0,0.,24.0,0.,24.0,0.,24.0,0.,24.0
1980-11-16 01:36:46.900 ,3,1,0.,24.0,0.,24.0,0.,24.0,0.,24.0
1980-11-16 01:37:10.900 ,3,0,0.,24.0,0.,24.0,0.,24.0,0.,24.0
1980-11-16 01:37:34.900 ,2,1,0.,24.0,0.,24.0,0.,24.0,0.,24.0
1980-11-16 01:37:58.900 ,2,0,0.,24.0,0.,24.0,0.,24.0,0.,24.0
1980-11-16 01:38:22.900 ,1,1,0.,24.0,0.,24.0,2.,24.0,0.,24.0
1980-11-16 01:38:46.900 ,1,0,0.,24.0,0.,24.0,1.,24.0,0.,24.0
1980-11-16 01:39:10.900 ,0,1,0.,24.0,0.,24.0,1.,24.0,0.,24.0
1980-11-16 01:39:34.900 ,0,0,0.,24.0,0.,24.0,0.,24.0,0.,24.0
1980-11-16 01:39:58.900 ,0,1,0.,24.0,0.,24.0,3.,24.0,0.,24.0
1980-11-16 01:40:22.900 ,0,0,0.,24.0,0.,24.0,2.,24.0,0.,24.0
1980-11-16 01:40:46.900 ,1,1,0.,24.0,0.,24.0,0.,24.0,0.,24.0
1980-11-16 01:41:10.900 ,1,0,0.,24.0,0.,24.0,1.,24.0,0.,24.0
1980-11-16 01:41:34.900 ,2,1,0.,24.0,0.,24.0,0.,24.0,0.,24.0
1980-11-16 01:41:58.900 ,2,0,0.,24.0,0.,24.0,1.,24.0,0.,24.0
1980-11-16 01:42:22.900 ,3,1,0.,24.0,0.,24.0,0.,24.0,0.,24.0
1980-11-16 01:42:46.900 ,3,0,1.,24.0,0.,24.0,0.,24.0,0.,24.0
1980-11-16 01:43:10.900 ,4,1,0.,24.0,0.,24.0,1.,24.0,0.,24.0
1980-11-16 01:43:34.900 ,4,0,0.,24.0,0.,24.0,1.,24.0,0.,24.0
1980-11-16 01:43:58.900 ,5,1,0.,24.0,0.,24.0,1.,24.0,0.,24.0
1980-11-16 01:44:22.900 ,5,0,0.,24.0,0.,24.0,0.,24.0,0.,24.0
1980-11-16 01:44:46.900 ,6,1,0.,24.0,0.,24.0,0.,24.0,0.,24.0
1980-11-16 01:45:10.900 ,6,0,0.,24.0,0.,24.0,0.,24.0,0.,24.0
1980-11-16 01:45:34.900 ,7,1,3.,24.0,0.,24.0,0.,24.0,0.,24.0
1980-11-16 01:45:58.900 ,7,0,11.,24.0,0.,24.0,0.,24.0,0.,24.0
1980-11-16 01:46:22.900 ,7,1,13.,24.0,0.,24.0,0.,24.0,0.,24.0
1980-11-16 01:46:46.900 ,7,0,14.,24.0,0.,24.0,1.,24.0,0.,24.0
1980-11-16 01:47:10.900 ,6,1,3.,24.0,0.,24.0,0.,24.0,0.,24.0
1980-11-16 01:47:34.900 ,6,0,0.,24.0,0.,24.0,0.,24.0,0.,24.0
1980-11-16 01:47:58.900 ,5,1,0.,24.0,0.,24.0,0.,24.0,0.,24.0
1980-11-16 01:48:22.900 ,5,0,0.,24.0,0.,24.0,0.,24.0,0.,24.0
1980-11-16 01:48:46.900 ,4,1,0.,24.0,0.,24.0,1.,24.0,0.,24.0
1980-11-16 01:49:10.900 ,4,0,0.,24.0,0.,24.0,1.,24.0,0.,24.0
1980-11-16 01:49:34.900 ,3,1,0.,24.0,0.,24.0,0.,24.0,0.,24.0
1980-11-16 01:49:58.900 ,3,0,0.,24.0,0.,24.0,1.,24.0,0.,24.0
1980-11-16 01:50:22.900 ,2,1,0.,24.0,0.,24.0,0.,24.0,0.,24.0
1980-11-16 01:50:46.900 ,2,0,0.,24.0,0.,24.0,2.,24.0,0.,24.0
1980-11-16 01:51:10.900 ,1,1,0.,24.0,0.,24.0,0.,24.0,0.,24.0
1980-11-16 01:51:34.900 ,1,0,0.,24.0,0.,24.0,0.,24.0,0.,24.0
1980-11-16 01:51:58.900 ,0,1,0.,24.0,0.,24.0,1.,24.0,0.,24.0
1980-11-16 01:52:22.900 ,0,0,0.,24.0,0.,24.0,0.,24.0,0.,24.0
1980-11-16 01:52:46.900 ,0,1,0.,24.0,0.,24.0,0.,24.0,0.,24.0
1980-11-16 01:53:10.900 ,0,0,0.,24.0,0.,24.0,2.,24.0,0.,24.0
1980-11-16 01:53:34.900 ,1,1,0.,24.0,0.,24.0,1.,24.0,0.,24.0
1980-11-16 01:53:58.900 ,1,0,0.,24.0,0.,24.0,0.,24.0,0.,24.0
1980-11-16 01:54:22.900 ,2,1,0.,24.0,0.,24.0,0.,24.0,0.,24.0
1980-11-16 01:54:46.900 ,2,0,0.,24.0,0.,24.0,0.,24.0,0.,24.0
1980-11-16 01:55:10.900 ,3,1,0.,24.0,0.,24.0,0.,24.0,0.,24.0
1980-11-16 01:55:34.900 ,3,0,0.,24.0,0.,24.0,1.,24.0,0.,24.0
1980-11-16 01:55:58.900 ,4,1,0.,24.0,0.,24.0,0.,24.0,0.,24.0
1980-11-16 01:56:22.900 ,4,0,0.,24.0,0.,24.0,1.,24.0,0.,24.0
1980-11-16 01:56:46.900 ,5,1,0.,24.0,0.,24.0,0.,24.0,0.,24.0
1980-11-16 01:57:10.900 ,5,0,0.,24.0,0.,24.0,1.,24.0,0.,24.0
1980-11-16 01:57:34.900 ,6,0,,0,,0,,0,,0
1980-11-16 01:57:58.900 ,6,0,0.,24.0,0.,24.0,1.,24.0,0.,24.0
1980-11-16 01:58:22.900 ,7,1,3.,24.0,0.,24.0,0.,24.0,0.,24.0
1980-11-16 01:58:46.900 ,7,0,11.,24.0,0.,24.0,0.,24.0,0.,24.0
1980-11-16 01:59:10.900 ,7,1,16.,24.0,0.,24.0,1.,24.0,0.,24.0
1980-11-16 01:59:34.900 ,7,0,15.,24.0,0.,24.0,0.,24.0,0.,24.0
1980-11-16 01:59:58.900 ,6,1,4.,24.0,0.,24.0,1.,24.0,0.,24.0
1980-11-16 02:00:22.900 ,6,0,0.,24.0,0.,24.0,1.,24.0,0.,24.0
1980-11-16 02:00:46.900 ,5,1,0.,24.0,0.,24.0,0.,24.0,0.,24.0
1980-11-16 02:01:10.900 ,5,0,0.,24.0,0.,24.0,0.,24.0,0.,24.0
1980-11-16 02:01:34.900 ,4,1,0.,24.0,0.,24.0,1.,24.0,0.,24.0
1980-11-16 02:01:58.900 ,4,0,0.,24.0,0.,24.0,1.,24.0,0.,24.0
1980-11-16 02:02:22.900 ,3,1,0.,24.0,0.,24.0,0.,24.0,0.,24.0
1980-11-16 02:02:46.900 ,3,0,0.,24.0,0.,24.0,1.,24.0,0.,24.0
1980-11-16 02:03:10.900 ,2,1,0.,24.0,0.,24.0,1.,24.0,0.,24.0
1980-11-16 02:03:34.900 ,2,0,0.,24.0,0.,24.0,1.,24.0,0.,24.0
1980-11-16 02:03:58.900 ,1,1,0.,24.0,0.,24.0,1.,24.0,0.,24.0
1980-11-16 02:04:22.900 ,1,0,0.,24.0,0.,24.0,0.,24.0,0.,24.0
1980-11-16 02:04:46.900 ,0,1,1.,24.0,0.,24.0,0.,24.0,0.,24.0
1980-11-16 02:05:10.900 ,0,0,0.,24.0,0.,24.0,0.,24.0,0.,24.0
1980-11-16 02:05:34.900 ,0,1,0.,24.0,0.,24.0,0.,24.0,0.,24.0
1980-11-16 02:05:58.900 ,0,0,0.,24.0,0.,24.0,0.,24.0,0.,24.0
1980-11-16 02:06:22.900 ,1,1,0.,24.0,0.,24.0,1.,24.0,0.,24.0
1980-11-16 02:06:46.900 ,1,0,0.,24.0,0.,24.0,0.,24.0,0.,24.0
1980-11-16 02:07:10.900 ,2,1,0.,24.0,0.,24.0,0.,24.0,0.,24.0
1980-11-16 02:07:34.900 ,2,0,0.,24.0,0.,24.0,0.,24.0,0.,24.0
1980-11-16 02:07:58.900 ,3,1,0.,24.0,0.,24.0,0.,24.0,0.,24.0
1980-11-16 02:08:22.900 ,3,0,0.,24.0,0.,24.0,1.,24.0,0.,24.0
1980-11-16 02:08:46.900 ,4,1,0.,24.0,0.,24.0,0.,24.0,0.,24.0
1980-11-16 02:09:10.900 ,4,0,0.,24.0,0.,24.0,0.,24.0,0.,24.0
1980-11-16 02:09:34.900 ,5,1,0.,24.0,0.,24.0,2.,24.0,0.,24.0
1980-11-16 02:09:58.900 ,5,0,0.,24.0,0.,24.0,0.,24.0,0.,24.0
1980-11-16 02:10:22.900 ,6,1,0.,24.0,0.,24.0,1.,24.0,0.,24.0
1980-11-16 02:10:46.900 ,6,0,0.,24.0,0.,24.0,0.,24.0,0.,24.0
1980-11-16 02:11:10.900 ,7,1,1.,24.0,0.,24.0,1.,24.0,0.,24.0
1980-11-16 02:11:34.900 ,7,0,7.,24.0,0.,24.0,1.,24.0,0.,24.0
1980-11-16 02:11:58.900 ,7,1,11.,24.0,0.,24.0,0.,24.0,0.,24.0
1980-11-16 02:12:22.900 ,7,0,8.,24.0,0.,24.0,1.,24.0,0.,24.0
1980-11-16 02:12:46.900 ,6,1,4.,24.0,0.,24.0,1.,24.0,0.,24.0
1980-11-16 02:13:10.900 ,6,0,0.,24.0,0.,24.0,0.,24.0,0.,24.0
1980-11-16 02:13:34.900 ,5,1,1.,24.0,0.,24.0,0.,24.0,0.,24.0
1980-11-16 02:13:58.900 ,5,0,0.,24.0,0.,24.0,2.,24.0,0.,24.0
1980-11-16 02:14:22.900 ,4,1,0.,24.0,0.,24.0,0.,24.0,0.,24.0
1980-11-16 02:14:46.900 ,4,0,0.,24.0,0.,24.0,1.,24.0,0.,24.0
1980-11-16 02:15:10.900 ,3,1,0.,24.0,0.,24.0,1.,24.0,0.,24.0
1980-11-16 02:15:34.900 ,3,0,0.,24.0,0.,24.0,2.,24.0,0.,24.0
1980-11-16 02:15:58.900 ,2,1,0.,24.0,0.,24.0,1.,24.0,0.,24.0
1980-11-16 02:16:22.900 ,2,0,0.,24.0,0.,24.0,0.,24.0,0.,24.0
1980-11-16 02:16:46.900 ,1,1,0.,24.0,0.,24.0,1.,24.0,0.,24.0
1980-11-16 02:17:10.900 ,1,0,0.,24.0,0.,24.0,0.,24.0,0.,24.0
1980-11-16 02:17:34.900 ,0,1,0.,24.0,0.,24.0,1.,24.0,0.,24.0
1980-11-16 02:17:58.900 ,0,0,0.,24.0,0.,24.0,0.,24.0,0.,24.0
1980-11-16 02:18:22.900 ,0,1,0.,24.0,0.,24.0,0.,24.0,0.,24.0
1980-11-16 02:18:46.900 ,0,0,0.,24.0,0.,24.0,1.,24.0,0.,24.0
1980-11-16 02:19:10.900 ,1,1,0.,24.0,0.,24.0,0.,24.0,0.,24.0
1980-11-16 02:19:34.900 ,1,0,0.,24.0,0.,24.0,0.,24.0,0.,24.0
1980-11-16 02:19:58.900 ,2,1,0.,24.0,0.,24.0,0.,24.0,0.,24.0
1980-11-16 02:20:22.900 ,2,0,0.,24.0,0.,24.0,0.,24.0,0.,24.0
1980-11-16 02:20:46.900 ,3,1,0.,24.0,0.,24.0,0.,24.0,0.,24.0
1980-11-16 02:21:10.900 ,3,0,0.,24.0,0.,24.0,0.,24.0,0.,24.0
1980-11-16 02:21:34.900 ,4,1,0.,24.0,0.,24.0,0.,24.0,0.,24.0
1980-11-16 02:21:58.900 ,4,0,0.,24.0,0.,24.0,0.,24.0,0.,24.0
1980-11-16 02:22:22.900 ,5,1,0.,24.0,0.,24.0,0.,24.0,0.,24.0
1980-11-16 02:22:46.900 ,5,0,0.,24.0,0.,24.0,0.,24.0,0.,24.0
1980-11-16 02:23:10.900 ,6,1,0.,24.0,0.,24.0,0.,24.0,0.,24.0
1980-11-16 02:23:34.900 ,6,0,0.,24.0,0.,24.0,1.,24.0,0.,24.0
1980-11-16 02:23:58.900 ,7,1,1.,24.0,0.,24.0,0.,24.0,0.,24.0
1980-11-16 02:24:22.900 ,7,0,9.,24.0,0.,24.0,0.,24.0,0.,24.0
1980-11-16 02:24:46.900 ,7,1,13.,24.0,0.,24.0,0.,24.0,0.,24.0
1980-11-16 02:25:10.900 ,7,0,12.,24.0,0.,24.0,1.,24.0,0.,24.0
1980-11-16 02:25:34.900 ,6,1,9.,24.0,0.,24.0,0.,24.0,0.,24.0
1980-11-16 02:25:58.900 ,6,0,0.,24.0,0.,24.0,0.,24.0,0.,24.0
1980-11-16 02:26:22.900 ,5,1,0.,24.0,0.,24.0,0.,24.0,0.,24.0
1980-11-16 02:26:46.900 ,5,0,0.,24.0,0.,24.0,0.,24.0,0.,24.0
1980-11-16 02:27:10.900 ,4,1,0.,24.0,0.,24.0,0.,24.0,0.,24.0
1980-11-16 02:27:34.900 ,4,0,0.,24.0,0.,24.0,0.,24.0,0.,24.0
1980-11-16 02:27:58.900 ,3,1,0.,24.0,0.,24.0,0.,24.0,0.,24.0
1980-11-16 02:28:22.900 ,3,0,0.,24.0,0.,24.0,0.,24.0,0.,24.0
1980-11-16 02:28:46.900 ,2,1,0.,24.0,0.,24.0,1.,24.0,0.,24.0
1980-11-16 02:29:10.900 ,2,0,0.,24.0,0.,24.0,0.,24.0,0.,24.0
1980-11-16 02:29:34.900 ,1,1,0.,24.0,1.,24.0,0.,24.0,0.,24.0
1980-11-16 02:29:58.900 ,1,0,1.,24.0,0.,24.0,0.,24.0,0.,24.0
1980-11-16 02:30:22.900 ,0,1,0.,24.0,0.,24.0,1.,24.0,0.,24.0
1980-11-16 02:30:46.900 ,0,0,0.,24.0,0.,24.0,0.,24.0,0.,24.0
1980-11-16 02:31:10.900 ,0,1,0.,24.0,0.,24.0,0.,24.0,0.,24.0
1980-11-16 02:31:34.900 ,0,0,0.,24.0,0.,24.0,0.,24.0,0.,24.0
1980-11-16 02:31:58.900 ,1,1,0.,24.0,0.,24.0,0.,24.0,0.,24.0
1980-11-16 02:32:22.900 ,1,0,0.,24.0,0.,24.0,1.,24.0,0.,24.0
1980-11-16 02:32:46.900 ,0,0,,0,,0,,0,,0
1980-11-16 02:33:10.900 ,0,0,,0,,0,,0,,0
1980-11-16 02:33:34.900 ,0,0,0.,24.0,0.,24.0,1.,24.0,0.,24.0
1980-11-16 02:33:58.900 ,0,0,,0,,0,,0,,0
1980-11-16 02:34:22.900 ,0,0,,0,,0,,0,,0
1980-11-16 02:34:46.900 ,0,0,,0,,0,,0,,0
1980-11-16 02:34:50.500 ,0,0,0.,24.0,0.,24.0,0.,24.0,0.,24.0
1980-11-16 02:35:10.900 ,5,1,0.,24.0,0.,24.0,1.,24.0,0.,24.0
1980-11-16 02:35:34.900 ,5,0,0.,24.0,0.,24.0,1.,24.0,0.,24.0
1980-11-16 02:35:58.900 ,6,1,0.,24.0,0.,24.0,0.,24.0,0.,24.0
1980-11-16 02:36:22.900 ,6,0,0.,24.0,0.,24.0,1.,24.0,0.,24.0
1980-11-16 02:36:46.900 ,7,1,3.,24.0,0.,24.0,0.,24.0,0.,24.0
1980-11-16 02:37:10.900 ,7,0,7.,24.0,0.,24.0,1.,24.0,0.,24.0
1980-11-16 02:37:34.900 ,7,1,9.,24.0,0.,24.0,0.,24.0,0.,24.0